Location: Krakow
(50.0830°N, 19.9170°E)
Time: 13:38:09
(UTC+02:00)

Altair - Visible Passes

Search period start: 24 July 2024 00:00
Search period end: 03 August 2024 00:00
Orbit: 1502 x 1682 km, 47.2° (Epoch: 23 July)

Date Brightness Start Highest point End Pass type
(mag) Time Alt. Az. Time Alt. Az. Time Alt. Az.
24 Jul 8.1 00:21:56 10° W 00:29:39 32° SW 00:32:14 28° SSW visible
24 Jul 7.5 21:51:53 10° W 22:01:00 66° SSW 22:09:44 11° ESE visible
24 Jul 8.1 23:56:40 10° W 00:04:35 34° SW 00:07:43 27° S visible
25 Jul 7.5 21:26:41 10° W 21:35:50 68° SSW 21:44:54 10° ESE visible
25 Jul 8.0 23:31:25 10° W 23:39:30 36° SW 23:43:17 26° S visible
26 Jul 7.5 21:01:29 10° W 21:10:40 70° SSW 21:19:45 10° ESE visible
26 Jul 8.0 23:06:11 10° W 23:14:24 39° SW 23:18:55 25° SSE visible
27 Jul 9.0 01:14:13 10° WSW 01:16:53 12° WSW 01:16:53 12° WSW visible
27 Jul 8.0 22:40:56 10° W 22:49:19 41° SW 22:54:37 22° SSE visible
28 Jul 8.9 00:48:10 10° W 00:51:54 13° SW 00:52:35 13° SW visible
28 Jul 7.9 22:15:43 10° W 22:24:13 43° SSW 22:30:22 19° SSE visible
29 Jul 8.9 00:22:23 10° W 00:26:53 15° SW 00:28:20 14° SW visible
29 Jul 7.9 21:50:29 10° W 21:59:06 46° SSW 22:06:10 16° SSE visible
29 Jul 8.8 23:56:45 10° W 00:01:52 16° SW 00:04:09 15° SW visible
30 Jul 7.9 21:25:16 10° W 21:34:00 48° SSW 21:42:01 12° SE visible
30 Jul 8.8 23:31:14 10° W 23:36:51 18° SW 23:40:00 15° SSW visible
31 Jul 7.9 21:00:02 10° W 21:08:52 51° SSW 21:17:35 10° SE visible
31 Jul 8.8 23:05:45 10° W 23:11:49 20° SW 23:15:54 15° SSW visible
01 Aug 8.8 22:40:20 10° W 22:46:48 22° SW 22:51:52 14° S visible
02 Aug 8.7 22:14:56 10° W 22:21:46 24° SW 22:27:52 12° S visible
